Погода в Яшмакове

Россия / Республика Марий Эл     56°45′40″N   48°05′21″E
темп.,
°C
ветер,
м/с
пор.,
м/с
влажн.,
%
обл.,
%
осадки,
мм/ч
давл.,
гПа
погр.,
м
22 апреля, чт
чт2200:00+3ююв61393100 0.0 1018677
03:00+3ю61395100 0.4 1019608
06:00+4ю61294100 0.1 1020527
09:00+6ю51186100 0.1 1021580
12:00+9ю6972100 0.0 1021789
15:00+12ю61163100 0.1 10201636
18:00+8юз118720 1.4 102134
21:00+5ююв22935 1.6 102213
23 апреля, пт
пт2300:00+4ююз22945 0.0 102211
03:00+3ю22945 0.0 102425
06:00+5ююв24925 0.0 1024108
09:00+10ю34685 0.0 1024577
12:00+14ю335011 0.0 10231523
15:00+15ююв234315 0.0 10221830
18:00+13ююв23585 0.0 102142
21:00+10юв3972100 0.0 1021227
24 апреля, сб
сб2400:00+9юв397987 0.0 1020252
03:00+6в388658 0.1 1019140
06:00+7в41084100 0.0 1017380
09:00+9вюв6875100 0.0 1016736
12:00+9вюв5877100 0.1 10141096
15:00+7вюв4690100 0.7 10131048
18:00+7вюв4892100 0.3 1011708
21:00+6вюв41094100 0.3 1009551
25 апреля, вс
вс2500:00+5вюв499354 0.0 1007454
03:00+5вюв4995100 1.2 1004728
06:00+3юз5797100 4.5 1003597
09:00+4з71593100 6.1 10051039
12:00+9з8135673 0.2 10062179
15:00+11зюз813447 0.3 10082728
18:00+8зюз611525 0.1 10101030
21:00+4юз39735 0.1 1012206
26 апреля, пн
пн2600:00+2юз310802 0.0 1012200
03:00+1юз310865 0.0 1013242
06:00+2юз410835 0.1 1014371
09:00+7зюз58575 0.1 10141217
12:00+10зюз6839100 0.1 10142552
15:00+10юз6843100 0.1 10142156
18:00+8зюз475360 0.1 1014634
21:00+4ююз34805 0.1 101482